sat.trackr.live / text

‹ back to catalog

STARLINK-3649

NORAD 51980 · 2022-025AA

PAYLOAD ACTIVE UNKNOWN

§ Identity

Operator
Country
US
Launch date
2022-03-09
Launch site
AFETR
Launch vehicle
Mass (kg)
RCS (m²)

Purposes: comms

External: N2YO · Heavens-Above · Gunter

§ Orbital elements

Epoch: 2026-05-25T04:10:44.445792Z

Period
95.44 min
Inclination
53.2138°
Eccentricity
0.0001506
Mean motion
15.08854697 rev/d
Perigee alt
538.7 km
Apogee alt
540.7 km
Semi-major
6,917.8 km
B*
-1.7678e-4
RAAN
55.7673°
Arg perigee
90.7722°
Mean anomaly
269.3442°
Rev number
23,260

§ Raw data

STARLINK-36491 51980U 22025AA  26145.17412553 -.00003102  00000+0 -17678-3 0  99992 51980  53.2138  55.7673 0001506  90.7722 269.3442 15.08854697232605

JSON: /api/v1/satellites/51980 · /tle

For live sub-satellite position, see the globe view (requires WebGL).

§ Visibility from observer

Set your observer location to see the next 7 days of passes ≥ 10°. The values pass through the URL so the page stays shareable.

No JS? Fill the form by hand. The geolocation button needs JavaScript.